Time,TemperatureF,DewpointF,PressureIn,WindDirection,WindDirectionDegrees,WindSpeedMPH,WindSpeedGustMPH,Humidity,HourlyPrecipIn,Conditions,Clouds,dailyrainin,SoftwareType,DateUTC
2013-02-26 00:04:00,15.9,8.0,30.19,NNE,32,0.0,0.0,70,0.00,,,0.01,weatherlink.com 1.10,2013-02-26 07:04:00,
2013-02-26 00:19:00,15.9,8.0,30.19,NNE,32,0.0,0.0,70,0.00,,,0.01,weatherlink.com 1.10,2013-02-26 07:19:00,
2013-02-26 00:34:00,15.6,8.0,30.19,NNE,32,0.0,0.0,71,0.00,,,0.00,weatherlink.com 1.10,2013-02-26 07:34:00,
2013-02-26 00:49:00,15.4,8.0,30.18,NNE,32,0.0,0.0,72,0.00,,,0.00,weatherlink.com 1.10,2013-02-26 07:49:00,
2013-02-26 01:04:00,14.5,7.0,30.17,NE,40,0.0,1.0,72,0.00,,,0.00,weatherlink.com 1.10,2013-02-26 08:04:00,
2013-02-26 01:19:00,13.6,7.0,30.17,NE,48,0.0,1.0,75,0.00,,,0.00,weatherlink.com 1.10,2013-02-26 08:19:00,
2013-02-26 01:34:00,15.4,8.0,30.18,NE,48,0.0,1.0,72,0.00,,,0.00,weatherlink.com 1.10,2013-02-26 08:34:00,
2013-02-26 01:49:00,15.8,8.0,30.17,NE,48,0.0,0.0,72,0.00,,,0.00,weatherlink.com 1.10,2013-02-26 08:49:00,
2013-02-26 02:04:00,16.0,8.0,30.16,NE,48,0.0,0.0,70,0.00,,,0.00,weatherlink.com 1.10,2013-02-26 09:04:00,
2013-02-26 02:19:00,14.6,7.0,30.16,NE,48,0.0,0.0,73,0.00,,,0.00,weatherlink.com 1.10,2013-02-26 09:19:00,
2013-02-26 02:34:00,14.6,7.0,30.15,NE,48,0.0,0.0,73,0.00,,,0.00,weatherlink.com 1.10,2013-02-26 09:34:00,
2013-02-26 02:49:00,15.0,8.0,30.14,NE,48,0.0,0.0,73,0.00,,,0.00,weatherlink.com 1.10,2013-02-26 09:49:00,
2013-02-26 03:04:00,14.7,9.0,30.13,NE,48,0.0,0.0,77,0.00,,,0.00,weatherlink.com 1.10,2013-02-26 10:04:00,
2013-02-26 03:19:00,14.7,10.0,30.12,NE,48,0.0,0.0,80,0.00,,,0.00,weatherlink.com 1.10,2013-02-26 10:19:00,
2013-02-26 03:34:00,14.7,10.0,30.12,NE,48,0.0,0.0,82,0.00,,,0.00,weatherlink.com 1.10,2013-02-26 10:34:00,
2013-02-26 03:49:00,15.0,10.0,30.12,NE,48,0.0,0.0,82,0.00,,,0.00,weatherlink.com 1.10,2013-02-26 10:49:00,
2013-02-26 04:04:00,15.5,11.0,30.11,NE,48,0.0,0.0,82,0.00,,,0.00,weatherlink.com 1.10,2013-02-26 11:04:00,
2013-02-26 04:19:00,15.6,11.0,30.11,NE,48,0.0,0.0,83,0.00,,,0.00,weatherlink.com 1.10,2013-02-26 11:19:00,
2013-02-26 04:34:00,15.3,11.0,30.10,NE,48,0.0,0.0,84,0.00,,,0.00,weatherlink.com 1.10,2013-02-26 11:34:00,
2013-02-26 04:49:00,14.8,11.0,30.09,NE,48,0.0,0.0,85,0.00,,,0.00,weatherlink.com 1.10,2013-02-26 11:49:00,
2013-02-26 05:04:00,14.8,11.0,30.09,NE,48,0.0,0.0,86,0.00,,,0.00,weatherlink.com 1.10,2013-02-26 12:04:00,
2013-02-26 05:20:00,14.4,11.0,30.09,NE,48,0.0,0.0,87,0.00,,,0.00,weatherlink.com 1.10,2013-02-26 12:20:00,
2013-02-26 05:35:00,14.5,12.0,30.09,NE,48,0.0,0.0,88,0.00,,,0.00,weatherlink.com 1.10,2013-02-26 12:35:00,
2013-02-26 05:50:00,14.6,12.0,30.09,NE,48,0.0,0.0,88,0.00,,,0.00,weatherlink.com 1.10,2013-02-26 12:50:00,
2013-02-26 06:05:00,14.5,12.0,30.09,NE,48,0.0,0.0,88,0.00,,,0.00,weatherlink.com 1.10,2013-02-26 13:05:00,
2013-02-26 06:20:00,14.3,12.0,30.08,NE,48,0.0,0.0,89,0.00,,,0.00,weatherlink.com 1.10,2013-02-26 13:20:00,
2013-02-26 06:35:00,14.2,12.0,30.08,NE,48,0.0,0.0,89,0.00,,,0.00,weatherlink.com 1.10,2013-02-26 13:35:00,
2013-02-26 06:50:00,14.5,12.0,30.07,NE,48,0.0,0.0,89,0.00,,,0.00,weatherlink.com 1.10,2013-02-26 13:50:00,
2013-02-26 07:05:00,14.5,12.0,30.07,NE,48,0.0,0.0,89,0.00,,,0.00,weatherlink.com 1.10,2013-02-26 14:05:00,
2013-02-26 07:20:00,15.0,12.0,30.07,NE,48,0.0,0.0,89,0.00,,,0.00,weatherlink.com 1.10,2013-02-26 14:20:00,
2013-02-26 07:35:00,15.2,12.0,30.07,NE,48,0.0,0.0,88,0.00,,,0.00,weatherlink.com 1.10,2013-02-26 14:35:00,
2013-02-26 07:50:00,15.2,12.0,30.07,NE,48,0.0,0.0,88,0.00,,,0.00,weatherlink.com 1.10,2013-02-26 14:50:00,
2013-02-26 08:05:00,15.1,12.0,30.08,NNE,14,0.0,1.0,88,0.00,,,0.00,weatherlink.com 1.10,2013-02-26 15:05:00,
2013-02-26 08:20:00,15.5,13.0,30.08,NNE,15,0.0,2.0,89,0.00,,,0.00,weatherlink.com 1.10,2013-02-26 15:20:00,
2013-02-26 08:35:00,16.8,14.0,30.09,North,3,0.0,1.0,89,0.00,,,0.00,weatherlink.com 1.10,2013-02-26 15:35:00,
2013-02-26 08:50:00,17.8,15.0,30.08,WNW,300,1.0,2.0,87,0.00,,,0.00,weatherlink.com 1.10,2013-02-26 15:50:00,
2013-02-26 09:05:00,18.5,15.0,30.08,WNW,298,1.0,5.0,86,0.00,,,0.00,weatherlink.com 1.10,2013-02-26 16:05:00,
2013-02-26 09:20:00,18.0,14.0,30.08,West,281,0.0,8.0,85,0.00,,,0.00,weatherlink.com 1.10,2013-02-26 16:20:00,
2013-02-26 09:35:00,18.2,14.0,30.08,West,271,7.0,9.0,85,0.00,,,0.00,weatherlink.com 1.10,2013-02-26 16:35:00,
2013-02-26 09:50:00,18.1,14.0,30.08,West,278,10.0,12.0,85,0.00,,,0.00,weatherlink.com 1.10,2013-02-26 16:50:00,
2013-02-26 10:05:00,18.1,14.0,30.08,West,269,9.0,13.0,85,0.00,,,0.00,weatherlink.com 1.10,2013-02-26 17:05:00,
2013-02-26 10:20:00,18.2,14.0,30.09,West,278,8.0,12.0,84,0.00,,,0.00,weatherlink.com 1.10,2013-02-26 17:20:00,
2013-02-26 10:35:00,19.1,15.0,30.09,West,269,8.0,11.0,84,0.00,,,0.00,weatherlink.com 1.10,2013-02-26 17:35:00,
2013-02-26 10:50:00,19.3,15.0,30.09,WNW,298,10.0,15.0,83,0.00,,,0.00,weatherlink.com 1.10,2013-02-26 17:50:00,
2013-02-26 11:05:00,20.1,15.0,30.09,West,278,10.0,12.0,82,0.00,,,0.00,weatherlink.com 1.10,2013-02-26 18:05:00,
2013-02-26 11:20:00,20.1,15.0,30.09,West,275,7.0,13.0,80,0.00,,,0.00,weatherlink.com 1.10,2013-02-26 18:20:00,
2013-02-26 11:35:00,19.4,14.0,30.10,WNW,297,6.0,16.0,80,0.00,,,0.00,weatherlink.com 1.10,2013-02-26 18:35:00,
2013-02-26 11:50:00,19.1,14.0,30.10,WNW,284,1.0,11.0,80,0.00,,,0.00,weatherlink.com 1.10,2013-02-26 18:50:00,
2013-02-26 12:05:00,20.2,14.0,30.10,WNW,283,1.0,10.0,78,0.00,,,0.00,weatherlink.com 1.10,2013-02-26 19:05:00,
2013-02-26 12:20:00,20.6,14.0,30.10,WNW,285,11.0,11.0,76,0.01,,,0.01,weatherlink.com 1.10,2013-02-26 19:20:00,
2013-02-26 12:35:00,19.8,14.0,30.11,WNW,295,4.0,12.0,79,0.01,,,0.01,weatherlink.com 1.10,2013-02-26 19:35:00,
2013-02-26 12:50:00,20.1,14.0,30.11,NW,311,12.0,12.0,78,0.01,,,0.01,weatherlink.com 1.10,2013-02-26 19:50:00,
2013-02-26 13:05:00,20.0,15.0,30.11,NW,325,8.0,16.0,79,0.02,,,0.02,weatherlink.com 1.10,2013-02-26 20:05:00,
2013-02-26 13:20:00,20.4,14.0,30.11,NW,311,7.0,14.0,76,0.01,,,0.02,weatherlink.com 1.10,2013-02-26 20:20:00,
2013-02-26 13:35:00,21.1,13.0,30.11,NW,325,7.0,14.0,70,0.01,,,0.02,weatherlink.com 1.10,2013-02-26 20:35:00,
2013-02-26 13:50:00,21.0,12.0,30.11,WNW,282,7.0,15.0,69,0.01,,,0.02,weatherlink.com 1.10,2013-02-26 20:50:00,
2013-02-26 14:05:00,21.2,15.0,30.13,WNW,283,13.0,13.0,76,0.00,,,0.02,weatherlink.com 1.10,2013-02-26 21:05:00,
2013-02-26 14:20:00,20.0,12.0,30.13,WNW,290,9.0,18.0,72,0.00,,,0.02,weatherlink.com 1.10,2013-02-26 21:20:00,
2013-02-26 14:35:00,20.3,12.0,30.14,WNW,285,7.0,15.0,69,0.00,,,0.02,weatherlink.com 1.10,2013-02-26 21:35:00,
2013-02-26 14:50:00,20.7,12.0,30.15,WNW,300,8.0,15.0,68,0.00,,,0.02,weatherlink.com 1.10,2013-02-26 21:50:00,
2013-02-26 15:05:00,20.6,12.0,30.16,WNW,295,11.0,20.0,68,0.00,,,0.02,weatherlink.com 1.10,2013-02-26 22:05:00,
2013-02-26 15:35:00,20.7,11.0,30.17,WNW,299,9.0,21.0,66,0.00,,,0.02,weatherlink.com 1.10,2013-02-26 22:35:00,
2013-02-26 15:50:00,20.2,11.0,30.18,West,267,12.0,18.0,67,0.00,,,0.02,weatherlink.com 1.10,2013-02-26 22:50:00,
2013-02-26 16:05:00,20.3,10.0,30.20,WNW,283,8.0,22.0,65,0.00,,,0.02,weatherlink.com 1.10,2013-02-26 23:05:00,
2013-02-26 16:20:00,20.8,10.0,30.20,West,271,9.0,14.0,63,0.00,,,0.02,weatherlink.com 1.10,2013-02-26 23:20:00,
2013-02-26 16:35:00,20.4,10.0,30.21,West,276,9.0,15.0,64,0.00,,,0.02,weatherlink.com 1.10,2013-02-26 23:35:00,
2013-02-26 16:50:00,20.1,10.0,30.22,WSW,253,12.0,15.0,66,0.00,,,0.02,weatherlink.com 1.10,2013-02-26 23:50:00,
2013-02-26 17:05:00,19.7,11.0,30.23,NW,309,9.0,19.0,69,0.00,,,0.02,weatherlink.com 1.10,2013-02-27 00:05:00,
2013-02-26 17:21:00,19.4,11.0,30.24,WNW,283,7.0,14.0,71,0.00,,,0.02,weatherlink.com 1.10,2013-02-27 00:21:00,
2013-02-26 17:37:00,19.3,11.0,30.25,WNW,287,8.0,15.0,70,0.00,,,0.02,weatherlink.com 1.10,2013-02-27 00:37:00,
2013-02-26 17:51:00,19.0,11.0,30.26,WNW,291,4.0,12.0,70,0.00,,,0.02,weatherlink.com 1.10,2013-02-27 00:51:00,
2013-02-26 18:06:00,18.6,11.0,30.27,WNW,298,5.0,9.0,72,0.00,,,0.02,weatherlink.com 1.10,2013-02-27 01:06:00,
2013-02-26 18:21:00,18.5,11.0,30.28,WNW,284,0.0,8.0,72,0.00,,,0.02,weatherlink.com 1.10,2013-02-27 01:21:00,
2013-02-26 18:36:00,18.3,11.0,30.29,WNW,297,1.0,8.0,72,0.00,,,0.02,weatherlink.com 1.10,2013-02-27 01:36:00,
2013-02-26 18:51:00,18.3,11.0,30.31,NW,305,4.0,13.0,72,0.00,,,0.02,weatherlink.com 1.10,2013-02-27 01:51:00,
2013-02-26 19:06:00,17.9,11.0,30.32,NNW,332,0.0,6.0,74,0.00,,,0.02,weatherlink.com 1.10,2013-02-27 02:06:00,
2013-02-26 19:21:00,17.7,11.0,30.33,NNW,332,0.0,0.0,76,0.00,,,0.02,weatherlink.com 1.10,2013-02-27 02:21:00,
2013-02-26 19:36:00,16.9,12.0,30.34,NNE,14,0.0,0.0,82,0.00,,,0.02,weatherlink.com 1.10,2013-02-27 02:36:00,
2013-02-26 19:51:00,17.0,12.0,30.34,NNW,332,0.0,2.0,80,0.00,,,0.02,weatherlink.com 1.10,2013-02-27 02:51:00,
2013-02-26 20:06:00,17.2,11.0,30.36,NW,311,6.0,7.0,75,0.00,,,0.02,weatherlink.com 1.10,2013-02-27 03:06:00,
2013-02-26 20:21:00,17.0,10.0,30.36,NNW,328,7.0,9.0,75,0.00,,,0.02,weatherlink.com 1.10,2013-02-27 03:21:00,
2013-02-26 20:36:00,16.7,10.0,30.37,NNW,328,5.0,9.0,74,0.00,,,0.02,weatherlink.com 1.10,2013-02-27 03:36:00,
2013-02-26 20:51:00,15.7,9.0,30.38,NNW,329,0.0,7.0,76,0.00,,,0.02,weatherlink.com 1.10,2013-02-27 03:51:00,
2013-02-26 21:06:00,15.1,9.0,30.38,NNW,329,0.0,0.0,75,0.00,,,0.02,weatherlink.com 1.10,2013-02-27 04:06:00,
2013-02-26 21:21:00,14.5,9.0,30.39,NNW,330,0.0,0.0,77,0.00,,,0.02,weatherlink.com 1.10,2013-02-27 04:21:00,
2013-02-26 21:36:00,13.9,8.0,30.39,NNW,330,0.0,2.0,78,0.00,,,0.02,weatherlink.com 1.10,2013-02-27 04:36:00,
2013-02-26 21:51:00,13.9,9.0,30.40,NNW,330,0.0,1.0,79,0.00,,,0.02,weatherlink.com 1.10,2013-02-27 04:51:00,
2013-02-26 22:06:00,13.5,9.0,30.40,NNW,332,0.0,0.0,81,0.00,,,0.02,weatherlink.com 1.10,2013-02-27 05:06:00,
2013-02-26 22:21:00,11.7,8.0,30.41,NE,49,3.0,3.0,83,0.00,,,0.02,weatherlink.com 1.10,2013-02-27 05:21:00,
2013-02-26 22:36:00,10.4,7.0,30.41,ENE,58,2.0,3.0,84,0.00,,,0.02,weatherlink.com 1.10,2013-02-27 05:36:00,
2013-02-26 22:51:00,10.1,6.0,30.42,ENE,65,0.0,2.0,83,0.00,,,0.02,weatherlink.com 1.10,2013-02-27 05:51:00,
2013-02-26 23:06:00,9.9,6.0,30.42,ENE,65,0.0,3.0,83,0.00,,,0.02,weatherlink.com 1.10,2013-02-27 06:06:00,
2013-02-26 23:21:00,10.7,6.0,30.43,ENE,65,0.0,0.0,82,0.00,,,0.02,weatherlink.com 1.10,2013-02-27 06:21:00,
2013-02-26 23:36:00,9.6,5.0,30.43,ENE,65,0.0,0.0,80,0.00,,,0.02,weatherlink.com 1.10,2013-02-27 06:36:00,
2013-02-26 23:51:00,9.4,5.0,30.44,ENE,70,2.0,3.0,82,0.00,,,0.02,weatherlink.com 1.10,2013-02-27 06:51:00,